[[{"header":{"parameterUnit":"m.s-1","parameterCategory":1,"la1":30.2992,"la2":30.254,"lo1":-89.0895,"lo2":-89.0443,"dy":0.0025,"dx":0.0025,"nx":19,"ny":19,"refTime":"2026-03-26T03:00:00:Z","depth":0,"parameterNumber":2,"parameterNumberName":"U-component_of_WINDS"},"data":[0,0,0,-2.1663,-2.1664,-2.169,-2.169,-2.1734,-2.1734,0,0,0,0,0,0,0,0,0,0,0,-2.1661,-2.1661,-2.1663,-2.1664,-2.169,-2.169,-2.1734,-2.1734,0,0,0,0,0,0,0,0,0,0,0,-2.1661,-2.1661,-2.1662,-2.1664,-2.169,-2.169,-2.1734,-2.171,0,0,0,0,0,0,0,0,0,0,-2.1683,-2.1687,-2.1661,-2.1662,-2.1664,-2.169,-2.169,-2.1709,-2.1712,-2.1726,0,-2.1741,0,-2.1738,-2.1738,-2.1738,0,0,0,-2.1659,-2.1685,-2.1686,-2.1662,-2.1664,-2.169,-2.1677,-2.171,-2.1714,-2.173,-2.1741,-2.1743,-2.1739,-2.1738,-2.1739,-2.1838,-2.1839,0,0,-2.1658,-2.1669,-2.1684,-2.1689,-2.1685,-2.1676,-2.1678,-2.1712,-2.1725,-2.1741,-2.1743,-2.174,-2.1739,-2.1739,-2.1838,-2.1838,0,0,0,-2.1657,-2.1668,-2.1669,-2.1687,-2.1691,-2.1677,-2.1679,-2.1723,-2.1723,-2.1744,-2.174,-2.1739,-2.174,-2.1837,-2.1838,-2.1882,0,0,0,-2.1655,-2.1667,-2.1668,-2.1675,-2.1691,-2.1708,-2.169,-2.172,-2.1724,-2.174,-2.1739,-2.174,-2.1836,-2.1837,-2.1879,-2.19,0,0,0,-2.1657,-2.1667,-2.1673,-2.1676,-2.1688,-2.1707,-2.1708,-2.1721,-2.1722,-2.1738,-2.174,-2.1836,-2.1837,-2.1876,-2.1896,-2.1929,0,0,0,-2.1662,-2.1712,-2.1674,-2.1728,-2.1688,-2.1734,-2.1708,-2.1742,-2.1761,-2.1739,-2.1836,-2.1838,-2.1876,-2.1893,-2.1927,-2.1959,-2.1974,0,0,-2.1731,-2.172,-2.1751,-2.1719,-2.1775,-2.1729,-2.1792,-2.1798,-2.179,-2.1823,-2.1825,-2.188,-2.1896,-2.1929,-2.2054,-2.2065,0,0,0,-2.1777,-2.1799,-2.1812,-2.183,-2.1837,-2.1845,-2.1841,-2.1844,-2.1872,-2.1809,-2.1901,-2.191,-2.1929,-2.1944,-2.1954,-2.1969,-2.1845,-2.1845,-2.1845,-2.1889,-2.1876,-2.1926,-2.1917,-2.1936,-2.1932,-2.1946,-2.1949,-2.193,-2.1952,-2.1961,-2.2039,-2.2057,-2.2064,-2.208,-2.1978,-2.1978,-2.1979,-2.1979,-2.1987,-2.2017,-2.1991,-2.2031,-2.2017,-2.2051,-2.205,-2.2036,-2.2065,-2.2031,-2.2047,-2.2009,-2.2077,-2.2091,-2.1982,-2.1981,-2.1981,-2.1981,-2.198,-2.2058,-2.207,-2.2073,-2.21,-2.2123,-2.2112,-2.2141,-2.2128,-2.2115,-2.2131,-2.2139,-2.2139,-2.2136,-2.2136,-2.2137,-2.2137,-2.2137,-2.2137,-2.2138,-2.213,-2.2132,-2.2159,-2.2172,-2.2183,-2.2195,-2.2194,-2.2204,-2.2212,-2.22,-2.22,-2.2179,-2.2087,-2.2063,-2.2142,-2.2141,-2.214,-2.214,-2.214,-2.2233,-2.2208,-2.2249,-2.226,-2.2274,-2.2298,-2.2281,-2.2304,-2.2311,-2.2326,-2.2302,-2.2236,-2.2224,-2.2216,-2.2197,-2.2305,-2.2305,-2.2305,-2.2305,-2.2293,-2.2286,-2.2325,-2.2344,-2.2361,-2.235,-2.2397,-2.2397,-2.2393,-2.2396,-2.2379,-2.2353,-2.2345,-2.2338,-2.2327,-2.2308,-2.2442,-2.2443,-2.2443,-2.2355,-2.235,-2.2392,-2.2388,-2.2398,-2.2408,-2.2452,-2.2475,-2.2465,-2.2448,-2.2399,-2.2393,-2.235,-2.2337,-2.2317,-2.2301,-2.2267,0,0]},{"header":{"parameterUnit":"m.s-1","parameterCategory":1,"la1":30.2992,"la2":30.254,"lo1":-89.0895,"lo2":-89.0443,"dy":0.0025,"dx":0.0025,"nx":19,"ny":19,"refTime":"2026-03-26T03:00:00:Z","depth":0,"parameterNumber":3,"parameterNumberName":"V-component_of_WINDS"},"data":[0,0,0,2.6916,2.6917,2.6974,2.6974,2.7039,2.704,0,0,0,0,0,0,0,0,0,0,0,2.6896,2.6897,2.6916,2.6917,2.6974,2.6974,2.7039,2.704,0,0,0,0,0,0,0,0,0,0,0,2.6896,2.6897,2.6897,2.6917,2.6974,2.6974,2.7039,2.6999,0,0,0,0,0,0,0,0,0,0,2.6945,2.6924,2.6896,2.6897,2.6918,2.6974,2.6974,2.6997,2.7001,2.7011,0,2.7021,0,2.7031,2.7044,2.7044,0,0,0,2.6919,2.692,2.6939,2.6897,2.6918,2.6973,2.6949,2.6999,2.7004,2.7017,2.7022,2.7024,2.7033,2.7044,2.7045,2.7101,2.7102,0,0,2.6916,2.6904,2.6935,2.6942,2.6934,2.6947,2.695,2.7002,2.7006,2.7022,2.7026,2.7034,2.7045,2.7045,2.7101,2.7101,0,0,0,2.6906,2.6902,2.6919,2.6939,2.695,2.6948,2.6953,2.7004,2.701,2.7027,2.7034,2.7045,2.7046,2.7101,2.7101,2.7101,0,0,0,2.6904,2.6896,2.6918,2.6911,2.6949,2.6978,2.6953,2.7007,2.7013,2.7034,2.7045,2.7046,2.7101,2.7101,2.71,2.7102,0,0,0,2.6894,2.6895,2.6903,2.6911,2.6935,2.6977,2.6987,2.7008,2.7018,2.7044,2.7047,2.7101,2.7101,2.71,2.7101,2.7114,0,0,0,2.6879,2.6899,2.6902,2.6928,2.6934,2.6976,2.6986,2.7018,2.7041,2.7045,2.7101,2.7101,2.71,2.7101,2.7114,2.7124,2.7127,0,0,2.6898,2.6901,2.6918,2.6922,2.6961,2.6969,2.7008,2.7038,2.705,2.7083,2.7085,2.71,2.7101,2.7114,2.7146,2.7149,0,0,0,2.692,2.6932,2.6945,2.6967,2.6992,2.7014,2.704,2.7051,2.7081,2.7065,2.7109,2.7109,2.7118,2.7123,2.7125,2.7133,2.7103,2.7103,2.7103,2.6931,2.6947,2.6976,2.6999,2.702,2.7048,2.7066,2.7087,2.7095,2.7105,2.7115,2.7133,2.7138,2.714,2.7148,2.7121,2.7121,2.7121,2.7121,2.6962,2.6981,2.6994,2.7027,2.7043,2.707,2.7097,2.7102,2.7129,2.7126,2.7134,2.7129,2.7142,2.715,2.7121,2.7121,2.7121,2.7121,2.7121,2.6971,2.6984,2.6999,2.7034,2.7058,2.708,2.7106,2.712,2.7132,2.714,2.7153,2.7153,2.7155,2.7145,2.7145,2.7145,2.7145,2.7146,2.7146,2.6975,2.6992,2.7014,2.7043,2.706,2.7084,2.7113,2.7129,2.7151,2.7158,2.7158,2.7166,2.714,2.7134,2.7147,2.7146,2.7146,2.7146,2.7146,2.7001,2.6998,2.7031,2.7048,2.7084,2.7109,2.7126,2.7159,2.7174,2.7186,2.7193,2.7171,2.7175,2.7173,2.7168,2.7189,2.7189,2.7189,2.7189,2.7009,2.7013,2.7051,2.7077,2.7104,2.7124,2.716,2.7183,2.7205,2.7216,2.7215,2.7209,2.7207,2.7211,2.7209,2.7204,2.7234,2.7234,2.7234,2.7027,2.7034,2.7062,2.7087,2.7117,2.7142,2.7176,2.7205,2.723,2.7236,2.7224,2.7223,2.7213,2.7209,2.7215,2.7211,2.7203,0,0]}]]